Weather History for KITH - May, 2012

Change the Weather History Date:

Sunday, May 20, 2012

  Actual Average Record
Temperature  
Mean Temperature 67 °F -  
Max Temperature 84 °F 69 °F 90 °F (1934)
Min Temperature 50 °F 46 °F 28 °F (2002)
Cooling Degree Days 2    
Growing Degree Days 17 (Base 50)    
Moisture  
Dew Point 51 °F    
Average Humidity 55    
Maximum Humidity 89    
Minimum Humidity 32    
Precipitation  
Precipitation 0.00 in - - ()
Sea Level Pressure  
Sea Level Pressure 30.20 in    
Wind  
Wind Speed 4 mph (ESE)    
Max Wind Speed 12 mph    
Max Gust Speed -    
Visibility 10 miles    
Events      
Averages and records for this station are not official NWS values.
T = Trace of Precipitation, MM = Missing Value Source: NWS Daily Summary

Daily Weather History Graph

Daily Weather History Graph

Search for Another Location

Airport or City:

Trip Planner

Search our weather history database for the weather conditions in past years. The results will help you decide how hot, cold, wet, or windy it might be!

Date:

Astronomy

May. 20, 2012 Rise Set
Actual Time 5:38 AM EDT 8:26 PM EDT
Civil Twilight 5:06 AM EDT 8:59 PM EDT
Nautical Twilight 4:24 AM EDT 9:41 PM EDT
Astronomical Twilight 3:36 AM EDT 10:29 PM EDT
Moon 5:18 AM EDT (5/20) 8:23 PM EDT (5/20)
Length of Visible Light 15h 53m
Length of Day
14h 47m
Waning Crescent, 0% of the Moon is Illuminated
May 20
Waning Crescent
May 20
New
May 28
First Quarter
Jun 4
Full
Jun 11
Last Quarter

Hourly Weather History & Observations

Time (EDT) Temp. Heat Index Dew Point Humidity Pressure Visibility Wind Dir Wind Speed Gust Speed Precip Events Conditions
12:56 AM 54.0 °F - 50.9 °F 89% 30.19 in 10.0 mi Calm Calm - N/A   Clear
1:56 AM 54.9 °F - 50.9 °F 86% 30.19 in 10.0 mi East 3.5 mph - N/A   Clear
2:56 AM 52.9 °F - 48.9 °F 86% 30.19 in 10.0 mi ENE 5.8 mph - N/A   Clear
3:56 AM 52.0 °F - 48.9 °F 89% 30.19 in 10.0 mi ENE 4.6 mph - N/A   Clear
4:56 AM 52.0 °F - 47.8 °F 86% 30.20 in 10.0 mi East 5.8 mph - N/A   Clear
5:56 AM 50.9 °F - 47.8 °F 89% 30.22 in 10.0 mi East 3.5 mph - N/A   Clear
6:56 AM 54.9 °F - 46.9 °F 75% 30.23 in 10.0 mi ENE 4.6 mph - N/A   Clear
7:56 AM 59.9 °F - 47.8 °F 64% 30.24 in 10.0 mi Calm Calm - N/A   Clear
8:56 AM 65.8 °F - 48.9 °F 54% 30.25 in 10.0 mi Calm Calm - N/A   Clear
9:56 AM 74.8 °F - 54.0 °F 48% 30.25 in 10.0 mi Calm Calm - N/A   Clear
10:56 AM 79.0 °F - 52.9 °F 40% 30.25 in 10.0 mi Calm Calm - N/A   Clear
11:56 AM 81.9 °F - 52.0 °F 35% 30.23 in 10.0 mi Calm Calm - N/A   Clear
12:56 PM 82.9 °F - 50.9 °F 33% 30.22 in 5.0 mi Variable 5.8 mph - N/A   Haze
1:56 PM 83.8 °F - 52.9 °F 34% 30.21 in 10.0 mi South 9.2 mph - N/A   Clear
2:33 PM 84.2 °F 82.8 °F 53.6 °F 35% 30.21 in 10.0 mi South 10.4 mph - N/A   Clear
2:56 PM 83.8 °F - 50.9 °F 32% 30.19 in 10.0 mi ENE 4.6 mph - N/A   Clear
3:56 PM 84.9 °F - 52.0 °F 32% 30.18 in 10.0 mi East 6.9 mph - N/A   Partly Cloudy
4:56 PM 84.9 °F - 52.0 °F 32% 30.16 in 10.0 mi East 9.2 mph - N/A   Scattered Clouds
5:56 PM 81.9 °F - 52.9 °F 37% 30.16 in 10.0 mi SE 4.6 mph - N/A   Scattered Clouds
7:56 PM 77.9 °F - 52.9 °F 42% 30.16 in 10.0 mi South 10.4 mph - N/A   Partly Cloudy
8:56 PM 72.0 °F - 52.9 °F 51% 30.17 in 10.0 mi SSE 4.6 mph - N/A   Partly Cloudy
9:56 PM 70.9 °F - 52.0 °F 51% 30.18 in 10.0 mi SSE 10.4 mph - N/A   Clear
10:56 PM 68.9 °F - 50.9 °F 53% 30.18 in 10.0 mi SSE 11.5 mph - N/A   Clear
11:56 PM 66.9 °F - 47.8 °F 50% 30.18 in 10.0 mi SE 10.4 mph - N/A   Clear